Find Local Weather

World > North America > United States > Ohio

Bryan, Ohio Regional Weather

Lat: 41.47N, Lon: 84.55W
Wx Zone: OHZ001
Warning FLW WEATHER ALERT - (More Info. Click Here) Warning
Feedback
Expires:201807160200;;540070
ASUS41 KCLE 160112
RWRCLE
OHIO REGIONAL WEATHER ROUNDUP
NATIONAL WEATHER SERVICE WILMINGTON, OH
900 PM EDT SUN JUL 15 2018

NOTE: "FAIR" INDICATES FEW OR NO CLOUDS BELOW 12,000 FEET WITH NO
SIGNIFICANT WEATHER AND/OR OBSTRUCTIONS TO VISIBILITY.


OHZ001>008-015>018-024>027-034-035-043-044-160200-
   NORTHWEST OHIO
  
CITY           SKY/WX    TMP DP  RH WIND       PRES   REMARKS
DEFIANCE       FAIR      84  65  52 CALM      29.94S                  
FINDLAY        FAIR      80  69  69 S6        29.95F                  
TOLEDO EXPRESS FAIR      85  67  54 SW6       29.94S                  
TOLEDO EXEC    FAIR      81  73  76 SE5       29.95S                  
LIMA           FAIR      78  68  71 SW7       29.98R                  
$$
 

SKY/WX - Weather  TMP - Temperature  DP - Dewpoint  RH - Relative Humidity
WIND - Wind Direction/Speed PRES - Barometric Pressure